{"data":{"norad_id":65383,"intl_designator":"2025-191E","name":"STARLINK-35054","alt_names":[],"object_type":"PAYLOAD","status":"ACTIVE","operator":null,"country":"US","launch_date":"2025-08-30","launch_site_code":"AFWTR","launch_vehicle":null,"mission":null,"orbit_class":"UNKNOWN","rcs_meters":null,"size_class":null,"mass_kg":null,"dimensions":null,"purposes":["comms"],"wikipedia_slug":null,"has_3d_model":false,"image_url":null,"decayed_at":null,"tle_current":{"epoch":"2026-09-20T13:11:54.358080Z","epoch_age_seconds":110631,"freshness":"FRESH","line1":"1 65383U 25191E   26263.54993470  .00013266  00000+0  41235-3 0  9998","line2":"2 65383  97.2826 129.5362 0002159  88.5678 271.5812 15.33457152 59644","mean_motion":15.33457152,"eccentricity":0.0002159,"inclination_deg":97.2826,"raan_deg":129.5362,"arg_perigee_deg":88.5678,"mean_anomaly_deg":271.5812,"bstar":0.00041235,"rev_number":5964,"period_min":93.905460489841,"perigee_km":464.02947617087,"apogee_km":466.98456165824,"semimajor_km":6843.6440189146,"source":"CELESTRAK","updated_at":"2026-09-21T09:00:35.597750Z"}}}